When you browse on this site, cookies collect data to enhance your experience and personalize the content and advertising you see.
Visit our Privacy Policy to learn more. By continuing to use the site, you agree to this use of cookies and data.
  • en Suisse
  • Liste des pays
  • À 7 jours
  • Température de l'eau
  • Carte météo
  • Widgets météo
  • user-avatar
    Se connecter

    Météo par heure à Rennes

    Ce jour, 15 Novembre, Vendredi

    Heure Température Précipitation Vent Pression Humidité
    00:00 +2°C° 0 mm 2 m/s 746 mmHg 90%
    01:00 +2°C° 0 mm 2 m/s 747 mmHg 90%
    02:00 +2°C° 0 mm 2 m/s 747 mmHg 91%
    03:00 +1°C° 0 mm 2 m/s 747 mmHg 91%
    04:00 +1°C° 0 mm 2 m/s 748 mmHg 91%
    05:00 +1°C° 0 mm 2 m/s 748 mmHg 91%
    06:00 +1°C° 0 mm 2 m/s 748 mmHg 91%
    07:00 +2°C° 0 mm 2 m/s 749 mmHg 88%
    08:00 +3°C° 0 mm 2 m/s 749 mmHg 86%
    09:00 +4°C° 0 mm 2 m/s 749 mmHg 84%
    10:00 +4°C° 0 mm 3 m/s 749 mmHg 81%
    11:00 +7°C° 0 mm 3 m/s 749 mmHg 78%
    12:00 +8°C° 0 mm 3 m/s 749 mmHg 76%
    13:00 +7°C° 0.1 mm 4 m/s 749 mmHg 77%
    14:00 +7°C° 0.1 mm 4 m/s 748 mmHg 78%
    15:00 +7°C° 0.1 mm 5 m/s 748 mmHg 79%
    16:00 +6°C° 0.7 mm 4 m/s 748 mmHg 83%
    17:00 +6°C° 0.7 mm 4 m/s 748 mmHg 88%
    18:00 +5°C° 0.7 mm 4 m/s 748 mmHg 92%
    19:00 +5°C° 0.6 mm 4 m/s 748 mmHg 93%
    20:00 +5°C° 0.6 mm 3 m/s 748 mmHg 93%
    21:00 +5°C° 0.6 mm 3 m/s 748 mmHg 93%
    22:00 +5°C° 1.4 mm 4 m/s 748 mmHg 93%
    23:00 +5°C° 1.4 mm 4 m/s 748 mmHg 94%

    Demain, 16 Novembre, Samedi

    Heure Température Précipitation Vent Pression Humidité
    00:00 +6°C° 1.4 mm 5 m/s 747 mmHg 94%
    01:00 +6°C° 1.2 mm 5 m/s 747 mmHg 93%
    02:00 +6°C° 1.2 mm 4 m/s 747 mmHg 93%
    03:00 +5°C° 1.2 mm 3 m/s 747 mmHg 93%
    04:00 +5°C° 0.7 mm 3 m/s 747 mmHg 93%
    05:00 +5°C° 0.7 mm 2 m/s 747 mmHg 93%
    06:00 +4°C° 0.7 mm 2 m/s 747 mmHg 92%
    07:00 +4°C° 0.2 mm 2 m/s 748 mmHg 91%
    08:00 +5°C° 0.2 mm 2 m/s 748 mmHg 90%
    09:00 +5°C° 0.2 mm 2 m/s 749 mmHg 89%
    10:00 +6°C° 0.1 mm 2 m/s 749 mmHg 85%
    11:00 +6°C° 0.1 mm 2 m/s 749 mmHg 81%
    12:00 +7°C° 0.1 mm 2 m/s 750 mmHg 77%
    13:00 +7°C° 0 mm 2 m/s 750 mmHg 77%
    14:00 +7°C° 0 mm 2 m/s 750 mmHg 78%
    15:00 +7°C° 0 mm 2 m/s 750 mmHg 78%
    16:00 +7°C° 0 mm 1 m/s 750 mmHg 82%
    17:00 +6°C° 0 mm 1 m/s 751 mmHg 86%
    18:00 +5°C° 0 mm 1 m/s 751 mmHg 89%
    19:00 +5°C° 0 mm 1 m/s 752 mmHg 91%
    20:00 +4°C° 0 mm 1 m/s 752 mmHg 92%
    21:00 +4°C° 0 mm 1 m/s 752 mmHg 93%
    22:00 +4°C° 0 mm 1 m/s 752 mmHg 94%
    23:00 +3°C° 0 mm 2 m/s 752 mmHg 94%

    Après-demain, 17 Novembre, Dimanche

    Heure Température Précipitation Vent Pression Humidité
    00:00 +2°C° 0 mm 2 m/s 753 mmHg 95%
    01:00 +3°C° 0 mm 1 m/s 753 mmHg 95%
    02:00 +3°C° 0 mm 1 m/s 752 mmHg 95%
    03:00 +3°C° 0 mm 1 m/s 752 mmHg 95%
    04:00 +3°C° 0 mm 1 m/s 752 mmHg 95%
    05:00 +3°C° 0 mm 1 m/s 752 mmHg 95%
    06:00 +3°C° 0 mm 1 m/s 753 mmHg 95%
    07:00 +4°C° 0 mm 1 m/s 753 mmHg 94%
    08:00 +4°C° 0 mm 1 m/s 753 mmHg 92%
    09:00 +5°C° 0 mm 1 m/s 753 mmHg 91%
    10:00 +5°C° 0 mm 2 m/s 753 mmHg 86%
    11:00 +6°C° 0 mm 2 m/s 753 mmHg 82%
    12:00 +7°C° 0 mm 2 m/s 754 mmHg 77%
    13:00 +7°C° 0 mm 2 m/s 754 mmHg 78%
    14:00 +7°C° 0 mm 2 m/s 754 mmHg 78%
    15:00 +7°C° 0 mm 2 m/s 754 mmHg 79%
    16:00 +7°C° 0 mm 2 m/s 754 mmHg 81%
    17:00 +6°C° 0 mm 2 m/s 754 mmHg 84%
    18:00 +5°C° 0 mm 2 m/s 755 mmHg 87%
    19:00 +5°C° 0 mm 2 m/s 755 mmHg 88%
    20:00 +4°C° 0 mm 2 m/s 755 mmHg 90%
    21:00 +3°C° 0 mm 2 m/s 755 mmHg 91%
    22:00 +3°C° 0 mm 2 m/s 756 mmHg 91%
    23:00 +4°C° 0 mm 1 m/s 756 mmHg 91%

    18 Novembre, Lundi

    Heure Température Précipitation Vent Pression Humidité
    00:00 +4°C° 0 mm 1 m/s 756 mmHg 91%
    01:00 +4°C° 0 mm 1 m/s 756 mmHg 91%
    02:00 +4°C° 0 mm 1 m/s 756 mmHg 91%
    03:00 +4°C° 0 mm 1 m/s 756 mmHg 90%
    04:00 +4°C° 0 mm 1 m/s 756 mmHg 91%
    05:00 +4°C° 0 mm 1 m/s 756 mmHg 91%
    06:00 +3°C° 0 mm 2 m/s 756 mmHg 91%
    07:00 +4°C° 0 mm 2 m/s 756 mmHg 90%
    08:00 +5°C° 0 mm 2 m/s 757 mmHg 89%
    09:00 +4°C° 0 mm 3 m/s 757 mmHg 88%
    10:00 +7°C° 0 mm 3 m/s 757 mmHg 86%
    11:00 +7°C° 0 mm 4 m/s 757 mmHg 83%
    12:00 +8°C° 0 mm 4 m/s 757 mmHg 80%
    13:00 +8°C° 0.2 mm 4 m/s 757 mmHg 82%
    14:00 +9°C° 0.2 mm 3 m/s 757 mmHg 83%
    15:00 +8°C° 0.2 mm 3 m/s 756 mmHg 85%
    16:00 +8°C° 0 mm 2 m/s 756 mmHg 87%
    17:00 +7°C° 0 mm 2 m/s 756 mmHg 89%
    18:00 +6°C° 0 mm 2 m/s 757 mmHg 91%
    19:00 +7°C° 0 mm 1 m/s 757 mmHg 91%
    20:00 +7°C° 0 mm 1 m/s 757 mmHg 90%
    21:00 +7°C° 0 mm 1 m/s 757 mmHg 90%
    22:00 +7°C° 0 mm 1 m/s 757 mmHg 90%
    23:00 +7°C° 0 mm 1 m/s 757 mmHg 90%

    19 Novembre, Mardi

    Heure Température Précipitation Vent Pression Humidité
    00:00 +7°C° 0 mm 1 m/s 756 mmHg 90%
    01:00 +7°C° 0 mm 1 m/s 756 mmHg 90%
    02:00 +5°C° 0 mm 2 m/s 756 mmHg 91%
    03:00 +5°C° 0 mm 2 m/s 755 mmHg 91%
    04:00 +5°C° 0 mm 2 m/s 755 mmHg 92%
    05:00 +4°C° 0 mm 2 m/s 755 mmHg 92%
    06:00 +4°C° 0 mm 2 m/s 755 mmHg 93%
    07:00 +4°C° 0 mm 3 m/s 755 mmHg 91%
    08:00 +4°C° 0 mm 3 m/s 755 mmHg 90%
    09:00 +5°C° 0 mm 4 m/s 755 mmHg 88%
    10:00 +6°C° 0 mm 4 m/s 754 mmHg 84%
    11:00 +7°C° 0 mm 5 m/s 754 mmHg 80%
    12:00 +9°C° 0 mm 5 m/s 753 mmHg 77%
    13:00 +8°C° 0 mm 5 m/s 753 mmHg 78%
    14:00 +8°C° 0 mm 5 m/s 752 mmHg 79%
    15:00 +8°C° 0 mm 5 m/s 752 mmHg 80%
    16:00 +8°C° 0 mm 5 m/s 751 mmHg 82%
    17:00 +7°C° 0 mm 6 m/s 751 mmHg 84%
    18:00 +5°C° 0 mm 7 m/s 751 mmHg 86%
    19:00 +5°C° 0.3 mm 7 m/s 751 mmHg 86%
    20:00 +5°C° 0.3 mm 7 m/s 751 mmHg 86%
    21:00 +5°C° 0.3 mm 7 m/s 751 mmHg 86%
    22:00 +5°C° 0.5 mm 6 m/s 751 mmHg 89%
    23:00 +6°C° 0.5 mm 4 m/s 751 mmHg 91%

    20 Novembre, Mercredi

    Heure Température Précipitation Vent Pression Humidité
    00:00 +5°C° 0.5 mm 3 m/s 751 mmHg 94%
    01:00 +5°C° 0 mm 3 m/s 751 mmHg 94%
    02:00 +5°C° 0 mm 2 m/s 750 mmHg 94%
    03:00 +5°C° 0 mm 2 m/s 750 mmHg 93%
    04:00 +5°C° 0 mm 2 m/s 750 mmHg 93%
    05:00 +5°C° 0 mm 2 m/s 750 mmHg 93%
    06:00 +3°C° 0 mm 3 m/s 750 mmHg 92%
    07:00 +4°C° 0 mm 3 m/s 750 mmHg 92%
    08:00 +5°C° 0 mm 4 m/s 750 mmHg 91%
    09:00 +5°C° 0 mm 4 m/s 749 mmHg 90%
    10:00 +6°C° 0 mm 5 m/s 749 mmHg 89%
    11:00 +8°C° 0 mm 6 m/s 749 mmHg 88%
    12:00 +9°C° 0 mm 6 m/s 748 mmHg 87%
    13:00 +9°C° 0 mm 6 m/s 748 mmHg 87%
    14:00 +9°C° 0 mm 6 m/s 747 mmHg 86%
    15:00 +9°C° 0 mm 6 m/s 747 mmHg 86%
    16:00 +8°C° 0 mm 6 m/s 746 mmHg 87%
    17:00 +6°C° 0 mm 7 m/s 746 mmHg 89%
    18:00 +6°C° 0 mm 7 m/s 745 mmHg 90%
    19:00 +6°C° 1.2 mm 7 m/s 745 mmHg 91%
    20:00 +6°C° 1.2 mm 8 m/s 744 mmHg 92%
    21:00 +6°C° 1.2 mm 8 m/s 744 mmHg 93%
    22:00 +8°C° 2.5 mm 7 m/s 744 mmHg 92%
    23:00 +8°C° 2.5 mm 6 m/s 743 mmHg 92%
    Voir plus